Location: Unspecified
(10.5000°N, 0.0000°E)
Time: 23:15:07
(UTC+00:00)

OTV 5 (USA 277) - Visible Passes

Search period start: 15 June 2019 00:00
Search period end: 25 June 2019 00:00
Orbit: 310 x 325 km, 54.5° (Epoch: 08 May)

Date Brightness Start Highest point End Pass type
(mag) Time Alt. Az. Time Alt. Az. Time Alt. Az.
20 Jun ? 20:00:29 10° WSW 20:02:53 28° NW 20:03:13 27° NW visible
22 Jun ? 18:55:23 10° SW 18:58:05 67° WNW 19:00:47 10° NNE visible
23 Jun ? 19:11:17 10° W 19:12:48 14° NW 19:14:18 10° NNW visible
24 Jun ? 04:51:57 10° N 04:54:20 28° NE 04:56:43 10° ESE visible
